Lander, WY

5:46 AM MST on December 07, 2016 (GMT -0700)
Hunt

Weather History for KLND - October, 2011

Change the Weather History Date:

Thursday, October 27, 2011

  Actual Average Record
Temperature  
Mean Temperature 37 °F 41 °F  
Max Temperature 50 °F 54 °F 75 °F (2016)
Min Temperature 23 °F 29 °F 6 °F (1919)
Degree Days  
Heating Degree Days 28 24  
Month to date heating degree days 413 503  
Since 1 July heating degree days 520 762  
Cooling Degree Days 0 0  
Month to date cooling degree days 10 0  
Year to date cooling degree days 576 472  
Moisture  
Dew Point 18 °F    
Average Humidity 53    
Maximum Humidity 81    
Minimum Humidity 24    
Precipitation  
Precipitation 0.00 in 0.03 in 0.71 in (1912)
Month to date precipitation 1.88 1.14  
Year to date precipitation 13.44 11.07  
Snow  
Snow 0.00 in 0.40 in - ()
Month to date snowfall 4.0 8.3  
Since 1 July snowfall 4.0 11.0  
Since 1 September snowfall 4.0 11.0  
Snow Depth 0.00 in    
Sea Level Pressure  
Sea Level Pressure 30.12 in    
Wind  
Wind Speed 5 mph (SSW)    
Max Wind Speed 12 mph    
Max Gust Speed 18 mph    
Visibility 10 miles    
Events      
T = Trace of Precipitation, MM = Missing Value Source: NWS Daily Summary

Daily Weather History Graph

Daily Weather History Graph

Search for Another Location

Airport or City:

Trip Planner

Search our weather history database for the weather conditions in past years. The results will help you decide how hot, cold, wet, or windy it might be!

Date:

Astronomy

Oct. 27, 2011 Rise Set
Actual Time 7:42 AM MDT 6:14 PM MDT
Civil Twilight 7:13 AM MDT 6:43 PM MDT
Nautical Twilight 6:40 AM MDT 7:16 PM MDT
Astronomical Twilight 6:07 AM MDT 7:49 PM MDT
Moon 8:52 AM MDT (10/27) 6:42 PM MDT (10/27)
Length of Visible Light 11h 30m
Length of Day
10h 31m
New Moon, 1% of the Moon is Illuminated
Oct 27
New Moon
Nov 2
First Quarter
Nov 10
Full
Nov 18
Last Quarter
Nov 24
New

Hourly Weather History & Observations

Time (MDT) Temp. Windchill Dew Point Humidity Pressure Visibility Wind Dir Wind Speed Gust Speed Precip Events Conditions
12:53 AM 25.0 °F 20.7 °F 19.0 °F 78% 30.17 in 10.0 mi East 3.5 mph - N/A   Clear
1:53 AM 26.1 °F 21.9 °F 17.1 °F 69% 30.15 in 10.0 mi North 3.5 mph - N/A   Clear
2:53 AM 25.0 °F 19.3 °F 17.1 °F 72% 30.16 in 10.0 mi NW 4.6 mph - N/A   Clear
3:53 AM 26.1 °F - 16.0 °F 66% 30.13 in 10.0 mi Calm Calm - N/A   Clear
4:53 AM 28.0 °F - 15.1 °F 58% 30.12 in 10.0 mi Calm Calm - N/A   Partly Cloudy
5:53 AM 25.0 °F - 19.0 °F 78% 30.14 in 10.0 mi Calm Calm - N/A   Overcast
6:53 AM 30.0 °F - 17.1 °F 59% 30.12 in 10.0 mi Calm Calm - N/A   Overcast
7:53 AM 30.0 °F 20.5 °F 18.0 °F 61% 30.15 in 10.0 mi WSW 11.5 mph - N/A   Scattered Clouds
8:53 AM 30.0 °F 25.2 °F 19.9 °F 66% 30.17 in 10.0 mi East 4.6 mph - N/A   Clear
9:53 AM 35.1 °F - 19.0 °F 52% 30.15 in 10.0 mi Calm Calm - N/A   Clear
10:53 AM 39.9 °F - 21.9 °F 49% 30.15 in 10.0 mi Calm Calm - N/A   Clear
11:53 AM 43.0 °F 40.3 °F 16.0 °F 34% 30.14 in 10.0 mi SE 4.6 mph - N/A   Clear
12:53 PM 46.9 °F - 17.1 °F 30% 30.09 in 10.0 mi SE 9.2 mph - N/A   Clear
1:53 PM 48.9 °F - 18.0 °F 29% 30.05 in 10.0 mi SSE 10.4 mph - N/A   Clear
2:53 PM 48.9 °F - 16.0 °F 27% 30.04 in 10.0 mi ENE 5.8 mph - N/A   Clear
3:53 PM 50.0 °F - 15.1 °F 25% 30.03 in 10.0 mi Calm Calm - N/A   Clear
4:53 PM 48.9 °F - 16.0 °F 27% 30.03 in 10.0 mi South 3.5 mph - N/A   Clear
5:53 PM 44.1 °F 40.8 °F 19.9 °F 38% 30.07 in 10.0 mi SW 5.8 mph - N/A   Clear
6:53 PM 39.9 °F 33.4 °F 19.9 °F 45% 30.09 in 10.0 mi WSW 10.4 mph - N/A   Clear
7:53 PM 37.0 °F 31.6 °F 21.9 °F 54% 30.13 in 10.0 mi West 6.9 mph - N/A   Clear
8:53 PM 35.1 °F 30.1 °F 19.9 °F 54% 30.17 in 10.0 mi West 5.8 mph - N/A   Clear
9:53 PM 35.1 °F 27.9 °F 18.0 °F 50% 30.18 in 10.0 mi WSW 9.2 mph - N/A   Clear
10:53 PM 33.1 °F 30.0 °F 18.0 °F 54% 30.17 in 10.0 mi SW 3.5 mph - N/A   Clear
11:53 PM 35.1 °F 27.4 °F 16.0 °F 46% 30.17 in 10.0 mi SW 10.4 mph - N/A   Clear